Change the Weather History Date:

Saturday, February 4, 2012

  Actual Average Record
Temperature  
Mean Temperature 20 °F 18 °F  
Max Temperature 30 °F 28 °F 55 °F (1991)
Min Temperature 9 °F 7 °F -20 °F (1963)
Degree Days  
Heating Degree Days 45 47  
Month to date heating degree days 160 191  
Since 1 July heating degree days 3850 4567  
Cooling Degree Days 0 0  
Month to date cooling degree days 0  
Year to date cooling degree days 0  
Moisture  
Dew Point 17 °F    
Average Humidity 74    
Maximum Humidity 92    
Minimum Humidity 55    
Precipitation  
Precipitation 0.03 in - 0.77 in (1972)
Month to date precipitation 0.17  
Year to date precipitation 1.77  
Sea Level Pressure  
Sea Level Pressure 30.26 in    
Wind  
Wind Speed 6 mph (North)    
Max Wind Speed 18 mph    
Max Gust Speed 23 mph    
Visibility 8 miles    
Events Snow    
T = Trace of Precipitation, MM = Missing Value Source: NWS Daily Summary

Daily Weather History Graph

Daily Weather History Graph

Search for Another Location

Airport or City:

Trip Planner

Search our weather history database for the weather conditions in past years. The results will help you decide how hot, cold, wet, or windy it might be!

Date:

Astronomy

Feb. 04, 2012 Rise Set
Actual Time 7:09 AM EST 5:06 PM EST
Civil Twilight 6:39 AM EST 5:37 PM EST
Nautical Twilight 6:04 AM EST 6:11 PM EST
Astronomical Twilight 5:30 AM EST 6:45 PM EST
Moon 1:56 PM EST (2/4) 4:38 AM EST (2/4)
Length of Visible Light 10h 58m
Length of Day
9h 56m
Waxing Gibbous, 89% of the Moon is Illuminated
Feb 4
Waxing Gibbous
Feb 7
Full
Feb 14
Last Quarter
Feb 21
New
Feb 29
First Quarter

Hourly Weather History & Observations

Time (EST) Temp. Windchill Dew Point Humidity Pressure Visibility Wind Dir Wind Speed Gust Speed Precip Events Conditions
12:40 AM 28.4 °F 24.6 °F 26.6 °F 93% 30.24 in 2.5 mi NW 3.5 mph - 0.00 in Snow Light Snow
12:53 AM 28.9 °F - 27.0 °F 92% 30.25 in 1.8 mi Calm Calm - 0.00 in Snow Light Snow
1:17 AM 28.4 °F - 26.6 °F 93% 30.23 in 2.0 mi Calm Calm - 0.00 in Snow Light Snow
1:38 AM 28.4 °F - 26.6 °F 93% 30.22 in 3.0 mi Calm Calm - 0.00 in Snow Light Snow
1:53 AM 28.0 °F - 27.0 °F 96% 30.24 in 5.0 mi Calm Calm - 0.00 in Snow Light Snow
2:19 AM 28.4 °F 19.7 °F 26.6 °F 93% 30.24 in 6.0 mi North 9.2 mph - 0.00 in Snow Light Snow
2:53 AM 28.0 °F 24.2 °F 27.0 °F 96% 30.25 in 4.0 mi Variable 3.5 mph - 0.00 in Snow Light Snow
3:03 AM 28.4 °F 18.0 °F 26.6 °F 93% 30.24 in 2.5 mi North 12.7 mph 16.1 mph 0.00 in Snow Light Snow
3:19 AM 28.4 °F 19.7 °F 24.8 °F 86% 30.25 in 6.0 mi NNW 9.2 mph - 0.00 in Snow Light Snow
3:28 AM 28.4 °F 20.4 °F 23.0 °F 80% 30.25 in 9.0 mi NNW 8.1 mph - 0.00 in   Overcast
3:53 AM 27.0 °F 16.1 °F 21.0 °F 78% 30.27 in 9.0 mi North 12.7 mph - 0.00 in Snow Light Snow
4:34 AM 24.8 °F 11.9 °F 19.4 °F 80% 30.27 in 10.0 mi North 16.1 mph - 0.00 in   Overcast
4:53 AM 24.1 °F 12.0 °F 19.0 °F 81% 30.28 in 9.0 mi North 13.8 mph - 0.00 in Snow Light Snow
5:24 AM 24.8 °F 12.4 °F 17.6 °F 74% 30.28 in 10.0 mi NNW 15.0 mph - 0.00 in   Overcast
5:53 AM 24.1 °F 10.6 °F 15.1 °F 69% 30.31 in 10.0 mi NNW 17.3 mph - 0.00 in   Overcast
6:53 AM 19.9 °F 10.1 °F 9.0 °F 62% 30.34 in 10.0 mi NW 8.1 mph - N/A   Partly Cloudy
7:53 AM 19.0 °F 11.1 °F 10.0 °F 68% 30.34 in 10.0 mi NW 5.8 mph - N/A   Clear
8:53 AM 21.9 °F 11.0 °F 9.0 °F 58% 30.35 in 10.0 mi NW 10.4 mph - N/A   Clear
9:53 AM 23.0 °F 12.4 °F 10.0 °F 58% 30.33 in 10.0 mi NNW 10.4 mph - N/A   Clear
10:53 AM 25.0 °F 17.1 °F 10.0 °F 53% 30.32 in 10.0 mi North 6.9 mph - N/A   Partly Cloudy
11:53 AM 25.0 °F 15.5 °F 10.9 °F 55% 30.29 in 10.0 mi ENE 9.2 mph - 0.03 in   Clear
12:53 PM 25.0 °F 14.8 °F 12.9 °F 60% 30.26 in 10.0 mi NE 10.4 mph - N/A   Clear
1:53 PM 24.1 °F 14.4 °F 12.9 °F 62% 30.24 in 10.0 mi NNE 9.2 mph - N/A   Clear
2:53 PM 24.1 °F 15.2 °F 14.0 °F 65% 30.23 in 10.0 mi NE 8.1 mph - N/A   Clear
3:53 PM 23.0 °F 13.1 °F 12.9 °F 65% 30.23 in 10.0 mi NE 9.2 mph - N/A   Clear
4:53 PM 19.9 °F 12.1 °F 12.0 °F 71% 30.24 in 10.0 mi North 5.8 mph - N/A   Clear
5:53 PM 17.1 °F - 10.9 °F 77% 30.24 in 10.0 mi Calm Calm - N/A   Clear
6:53 PM 15.1 °F - 10.9 °F 84% 30.25 in 10.0 mi Calm Calm - N/A   Clear
7:53 PM 14.0 °F - 9.0 °F 80% 30.25 in 10.0 mi Calm Calm - N/A   Clear
8:53 PM 12.0 °F - 8.1 °F 84% 30.25 in 10.0 mi Calm Calm - N/A   Clear
9:53 PM 10.9 °F - 7.0 °F 84% 30.24 in 10.0 mi Calm Calm - N/A   Clear
10:53 PM 10.0 °F - 6.1 °F 84% 30.22 in 10.0 mi Calm Calm - N/A   Clear
11:53 PM 9.0 °F - 6.1 °F 88% 30.22 in 10.0 mi Calm Calm - N/A   Clear